Spokane Fairchild, WA
on Saturday, February 23, 2013

Saturday
Previous Day Next Day
Daily Summary
 ActualAverage (KGEG)Record (KGEG)
Temperature
Mean Temperature °F 34°F  
Max Temperature 41°F 42°F 59°F (1947)
Min Temperature 25°F 27°F 2°F (1942)
Degree Days
Heating Degree Days 32 31  
Month to date heating degree days 746  
Since 1 July heating degree days 4679  
Cooling Degree Days 0 0  
Month to date cooling degree days 0  
Year to date cooling degree days 0  
Moisture
Dew Point 25°F   
Average Humidity 78    
Maximum Humidity 93    
Minimum Humidity 57    
Precipitation
Precipitation 0.00 in 0.05 in 0.48 in (2009)
Month to date precipitation 1.08  
Year to date precipitation 2.87  
Snow
Snow 0.00 in 0.20 in 6.80 in (2011)
Month to date snowfall 5.8  
Since 1 July snowfall 39.3  
Snow Depth in   
Wind
Wind Speed 16 mph   
Max Wind Speed 22 mph   
Max Gust Speed 29 mph   
Visibility 10 miles   
Events Snow   

Key: T is trace of precipitation, MM is missing value
Source: NWS Daily Summary
Time(PST)TemperatureDew PointHumidity Pressure Visibility Wind DirectionWind SpeedGust SpeedPrecipitationEvents Conditions
12:44 AM 32.0°F 24.8°F 75% 29.67 in 10.0 miles SW 19.6 mph 27.6 mph N/A   Partly Cloudy
12:54 AM 32.0°F 24.8°F 75% 29.67 in 10.0 miles SW 21.9 mph 26.5 mph N/A Snow Light Snow
12:58 AM 32.0°F 24.8°F 75% 29.74 in 10.0 miles SW 20.7 mph 28.8 mph 0.00 in Snow Light Snow
1:28 AM 32.0°F 24.8°F 75% 29.69 in 10.0 miles SW 21.9 mph 28.8 mph N/A   Scattered Clouds
1:48 AM 32.0°F 24.8°F 75% 29.69 in 10.0 miles SW 19.6 mph - N/A Snow Light Snow
1:58 AM 30.6°F 24.1°F 77% 29.76 in 10.0 miles SW 20.7 mph 25.3 mph 0.00 in Snow Light Snow
2:34 AM 30.2°F 23.0°F 75% 29.70 in 10.0 miles WSW 15.0 mph - N/A   Clear
2:58 AM 29.8°F 23.0°F 76% 29.79 in 10.0 miles SW 18.4 mph - 0.00 in   Scattered Clouds
3:03 AM 30.2°F 23.0°F 75% 29.72 in 10.0 miles SW 18.4 mph - N/A Snow Light Snow
3:13 AM 28.4°F 23.0°F 80% 29.72 in 10.0 miles SW 18.4 mph - N/A   Scattered Clouds
3:31 AM 28.4°F 23.0°F 80% 29.72 in 10.0 miles SW 18.4 mph - N/A Snow Light Snow
3:58 AM 28.2°F 22.6°F 80% 29.81 in 10.0 miles SW 19.6 mph - 0.00 in Snow Light Snow
4:23 AM 28.4°F 23.0°F 80% 29.74 in 10.0 miles SW 21.9 mph 28.8 mph N/A   Clear
4:35 AM 28.4°F 23.0°F 80% 29.74 in 10.0 miles SW 19.6 mph - N/A Snow Light Snow
4:37 AM 28.4°F 23.0°F 80% 29.75 in 10.0 miles SW 19.6 mph - N/A   Clear
4:58 AM 28.0°F 23.4°F 83% 29.83 in 10.0 miles SW 17.3 mph - 0.00 in   Partly Cloudy
5:17 AM 28.4°F 23.0°F 80% 29.77 in 10.0 miles SW 16.1 mph 23.0 mph N/A Snow Light Snow
5:28 AM 28.4°F 23.0°F 80% 29.77 in 10.0 miles SW 17.3 mph - N/A   Overcast
5:38 AM 28.4°F 23.0°F 80% 29.77 in 10.0 miles SW 16.1 mph - N/A Snow Light Snow
5:50 AM 28.4°F 24.8°F 86% 29.79 in 10.0 miles SW 13.8 mph - N/A   Overcast
5:58 AM 28.2°F 24.1°F 84% 29.86 in 10.0 miles SSW 17.3 mph - 0.00 in   Overcast
6:58 AM 27.3°F 23.5°F 86% 29.89 in 10.0 miles SSW 15.0 mph 20.7 mph N/A   Partly Cloudy
7:02 AM 26.6°F 23.0°F 86% 29.82 in 10.0 miles SSW 11.5 mph 20.7 mph N/A   Partly Cloudy
7:11 AM 26.6°F 23.0°F 86% 29.83 in 10.0 miles SSW 12.7 mph - N/A   Clear
7:39 AM 26.6°F 24.8°F 93% 29.84 in 10.0 miles SSW 17.3 mph - N/A   Clear
7:57 AM 26.6°F 24.8°F 93% 29.85 in 10.0 miles SSW 16.1 mph - N/A   Clear
7:58 AM 26.6°F 24.8°F 93% 29.92 in 10.0 miles SSW 17.3 mph - 0.00 in   Clear
8:37 AM 28.4°F 24.8°F 86% 29.88 in 10.0 miles SW 17.3 mph 25.3 mph N/A   Clear
8:58 AM 29.5°F 25.2°F 84% 29.96 in 10.0 miles SW 16.1 mph - N/A   Scattered Clouds
9:58 AM 30.6°F 26.1°F 83% 29.98 in 10.0 miles SW 16.1 mph - N/A   Overcast
10:58 AM 32.2°F 27.5°F 83% 30.00 in 10.0 miles SW 13.8 mph - N/A   Overcast
11:28 AM 35.6°F 28.4°F 75% 29.94 in 10.0 miles SW 15.0 mph - N/A   Partly Cloudy
11:29 AM 35.6°F 28.4°F 75% 29.94 in 10.0 miles SW 13.8 mph - N/A   Partly Cloudy
11:37 AM 35.6°F 28.4°F 75% 29.94 in 10.0 miles SW 16.1 mph - N/A   Clear
11:38 AM 35.6°F 28.4°F 75% 29.94 in 10.0 miles SW 15.0 mph - N/A   Clear
11:53 AM 35.6°F 28.4°F 75% 29.94 in 10.0 miles SW 17.3 mph - N/A   Clear
11:57 AM 35.6°F 28.4°F 75% 29.94 in 10.0 miles SW 16.1 mph - N/A   Clear
11:58 AM 35.6°F 28.4°F 75% 30.01 in 10.0 miles SW 16.1 mph - 0.00 in   Clear
12:01 PM 35.6°F 28.4°F 75% 29.94 in 10.0 miles SW 17.3 mph - N/A   Clear
12:11 PM 35.6°F 28.4°F 75% 29.94 in 10.0 miles SW 17.3 mph - N/A   Clear
12:58 PM 39.2°F 28.9°F 67% 30.01 in 10.0 miles SW 12.7 mph 20.7 mph 0.00 in   Clear
1:22 PM 39.2°F 28.4°F 65% 29.96 in 10.0 miles West 15.0 mph - N/A   Clear
1:47 PM 41.0°F 26.6°F 57% 29.96 in 10.0 miles WSW 13.8 mph - N/A   Clear
1:58 PM 40.5°F 27.3°F 59% 30.03 in 10.0 miles West 15.0 mph - 0.00 in   Clear
2:58 PM 40.5°F 26.4°F 57% 30.05 in 10.0 miles WSW 12.7 mph - N/A   Clear
3:58 PM 40.3°F 26.6°F 58% 30.07 in 10.0 miles West 11.5 mph - N/A   Clear
4:58 PM 38.5°F 27.7°F 65% 30.11 in 10.0 miles West 10.4 mph - N/A   Overcast
5:58 PM 33.4°F 26.6°F 76% 30.14 in 10.0 miles SW 8.1 mph - N/A   Clear
6:49 PM 33.8°F 24.8°F 70% 30.08 in 10.0 miles WSW 5.8 mph - N/A   Clear
6:58 PM 34.3°F 24.1°F 66% 30.17 in 10.0 miles Variable 2.3 mph - 0.00 in   Clear
7:03 PM 32.0°F 24.8°F 75% 30.09 in 10.0 miles East 3.5 mph - N/A   Clear
7:46 PM 32.0°F 24.8°F 75% 30.10 in 10.0 miles SW 4.6 mph - N/A   Clear
7:58 PM 31.1°F 24.8°F 77% 30.18 in 10.0 miles SE 2.3 mph - 0.00 in   Clear
7:59 PM 32.0°F 24.8°F 75% 30.10 in 10.0 miles ESE 3.5 mph - N/A   Clear
8:58 PM 30.9°F 24.3°F 76% 30.20 in 10.0 miles SW 5.8 mph - 0.00 in   Clear
9:58 PM 28.6°F 25.0°F 86% 30.22 in 10.0 miles West 5.8 mph - N/A   Clear
10:58 PM 27.9°F 23.4°F 83% 30.23 in 10.0 miles SW 4.6 mph - N/A   Clear
11:03 PM 28.4°F 23.0°F 80% 30.15 in 10.0 miles SW 6.9 mph - N/A   Clear
11:16 PM 26.6°F 23.0°F 86% 30.15 in 10.0 miles WSW 6.9 mph - N/A   Clear
11:50 PM 26.6°F 23.0°F 86% 30.16 in 10.0 miles South 6.9 mph - N/A   Clear
11:58 PM 25.9°F 23.2°F 90% 30.25 in 10.0 miles South 6.9 mph - 0.00 in   Clear
Moon Phase
Feb. 23 Feb. 25 Mar. 04 Mar. 11 Mar. 19
Sunrise:06:41 AM (PST) Moon Rise:03:38 PM (PST)2/23
Sunset:05:26 PM (PST) Moon Set:05:12 AM (PST)2/23

Copyright © 2014 The Weather Underground, Inc.